Regional Weather Roundup
Issued by NWS Newport/Morehead, NC

Current Version | Previous Version | Text Only | Print | Product List | Glossary On
Versions: 1 2 3 4 5 6 7 8 9 10 11 12 13 14 15 16 17 18 19 20 21 22 23 24 25 26 27 28 29 30 31 32 33 34 35 36 37 38 39 40 41 42 43 44 45 46 47 48 49 50
326
ASUS42 KMHX 180324
RWRMHX
WEATHER ROUNDUP FOR EASTERN NORTH CAROLINA
NATIONAL WEATHER SERVICE NEWPORT/MOREHEAD CITY NC
1000 PM EST TUE JAN 17 2017

NOTE: "FAIR" INDICATES FEW OR NO CLOUDS BELOW 12,000 FEET
WITH NO SIGNIFICANT WEATHER AND/OR OBSTRUCTIONS TO VISIBILITY

NCZ015>017-031-032-045>047-102-103-180400-
NORTH COAST

CITY           SKY/WX    TMP DP  RH WIND       PRES   REMARKS
EDENTON        CLOUDY    60  56  85 CALM      30.06F
ELIZABETH CITY CLOUDY    56  55  97 S10       30.05F
KITTY HAWK     NOT AVBL
MANTEO         CLOUDY    56  56 100 S6        30.09F

$$

NCZ045>047-081-094-103-104-180400-
CENTRAL COAST

CITY           SKY/WX    TMP DP  RH WIND       PRES   REMARKS
FRISCO         CLOUDY    62  59  90 SW9       30.11S FOG

$$

NCZ095-097-098-100-101-180400-
SOUTHERN COAST

CITY           SKY/WX    TMP DP  RH WIND       PRES   REMARKS
BEAUFORT       CLEAR     61  59  93 SW10      30.13F
CEDAR ISLAND   NOT AVBL
JACKSONVILLE   PTCLDY    60  57  89 SW7       30.12F
PINEY ISLAND   MOCLDY   N/A N/A N/A SW9       30.11F
WILMINGTON     MOCLDY    60  59  96 SW9       30.14F


$$

NCZ011>013-027>030-043-044-078>080-089-090>093-098-180400-
COASTAL PLAIN

CITY           SKY/WX    TMP DP  RH WIND       PRES   REMARKS
AHOSKIE        LGT RAIN  57  55  93 S5        30.03F
CLINTON        MOCLDY    61  58  89 S6        30.09F
ELIZABETHTOWN  MOCLDY    60  57  92 S6        30.11F
GOLDSBORO      LGT RAIN  63  61  94 S8        30.06F
GREENVILLE     LGT RAIN  63  57  82 SW12      30.07F
HAVELOCK       PTCLDY    59  56  89 SW7       30.13F
KENANSVILLE    MOCLDY    59  55  88 CALM      30.11F
KINSTON        CLOUDY    61  55  82 S10       30.09F
NEW BERN       PTCLDY    60  56  86 SW8       30.12F
RICHLANDS      MOCLDY    58  56  93 S9        30.12F
ROCKY MOUNT    CLOUDY    60  57  89 SW8       30.06F
WASHINGTON     CLOUDY    61  55  81 S8        30.08F
WHITEVILLE     PTCLDY    59  57  94 S6        30.13F

$$

AMZ130-135-150-152-154-156-158-170-250-252-270-ANZ085-086-088-633-658-670-180400-
MARINE OBSERVATIONS

STATION/POSITION TIME  TEMP    WIND        PRES    WAVE   SWELL
                       AIR SEA DIR/SP/G            HT/PER HT/PER
                 (UTC) (F)     (DEG/KT/KT) (MB)    (FT/S) (FT/S)
CHESAPEAKE LIGHT NOT AVBL
64 E VA BEACH    0250   58 57  230/ 21/ 25 1017.0    4/ 4   2/ 8
DUCK             0300   57 44  210/ 12/ 15 1017.5
2 E DUCK         0300      45                N/A     2/10
OREGON INLET     0300      50  200/ 11/ 12 1019.1
13E OREGON INLT  NOT AVBL
HATTERAS CG      0300   63 54  230/ 10/ 13 1019.3
DIAMOND BUOY     0250   71 73  230/ 21/ 23 1019.3    4/ 4   2/ 8
CAPE LOOKOUT     0300   64     220/ 10/ 13 1019.7
BEAUFORT LAB     0300   60 50  250/  3/  7 1019.2
30 SE NEW RVR IN 0308   62 62  230/ 10/ 12 1020.6
30 SE NEW RVR IN 0243      63                N/A     3/11
27 SE WRIGHTSVLE 0308   69 69  210/ 14/ 19 1020.1
5 SE WRIGHTSVLE  0308   58     220/ 12/ 16 1020.6
225 S CAPE HAT   0250   72 72  210/ 12/ 14 1023.7    3/ 8   2/ 8
41 SE CHARLESTON 0250   70 70  220/ 14/ 17 1022.0    3/10   2/10

$$




USA.gov is the U.S. government's official web portal to all federal, state and local government web resources and services.